Regional Weather Roundup
Issued by NWS

Home | Current Version | Previous Version | Graphics & Text | Print | Product List | Glossary Off
Versions: 1 2 3 4 5 6 7 8 9 10 11 12 13 14 15 16 17 18 19 20 21 22 23 24 25 26 27 28 29 30 31 32 33 34 35 36 37 38 39 40 41 42 43 44 45 46 47 48 49 50

000
ASUS43 KLSX 280307
RWRMO

WEATHER SUMMARY FOR MISSOURI
NATIONAL WEATHER SERVICE SPRINGFIELD MO
1000 PM CDT MON APR 27 2015

NOTE: "FAIR" INDICATES FEW OR NO CLOUDS BELOW 12,000 FEET WITH NO
       SIGNIFICANT WEATHER AND/OR OBSTRUCTIONS TO VISIBILITY.
       CURRENT SKY AND/OR WEATHER CONDITIONS ARE NOT AVAILABLE FOR
       CHILLICOTHE AND FARMINGTON.

MOZ001>031-035>038-043-044-053-054-280400-
...NORTHERN AND WESTERN MISSOURI...

CITY           SKY/WX    TMP DP  RH WIND       PRES   REMARKS
KANSAS CTY INT PTCLDY    53  36  52 NE7       30.10R
KANSAS C DTWN  PTCLDY    57  36  45 NE3       30.10R
LEE`S SUMMIT   PTCLDY    57  36  45 NE5       30.10R
ST JOSEPH      PTCLDY    49  39  68 N7        30.12R
CHILLICOTHE      N/A     52  40  63 N5        30.13R
KIRKSVILLE     PTCLDY    48  40  73 N3        30.12R

$$
MOZ066>068-077>081-088>096-101>105-280400-
...SOUTHWEST MISSOURI...

CITY           SKY/WX    TMP DP  RH WIND       PRES   REMARKS
SPRINGFIELD    CLOUDY    56  35  45 NE7       30.04R
JOPLIN         CLOUDY    56  38  50 NE7       30.05R

$$
MOZ032>034-039>042-045>050-055>058-069>072-280400-
...CENTRAL MISSOURI...

CITY           SKY/WX    TMP DP  RH WIND       PRES   REMARKS
COLUMBIA       CLEAR     52  39  61 NE9       30.09R
JEFFERSON CITY PTCLDY    59  36  42 N9        30.08R
ROLLA          PTCLDY    49  36  61 NE6       30.06R
SEDALIA        PTCLDY    56  36  47 NE5       30.10R
WHITEMAN AFB   CLEAR     50  37  61 NE5       30.08R
WARRENSBURG    PTCLDY    54  36  50 N6        30.09R
OSAGE BEACH    MOCLDY    55  34  44 CALM      30.07R

$$
MOZ051-052-059>065-280400-
...EAST CENTRAL MISSOURI...

CITY           SKY/WX    TMP DP  RH WIND       PRES   REMARKS
ST LOUIS INTL  PTCLDY    58  37  45 NE6       30.09R
SPIRIT OF STL  CLEAR     48  41  76 CALM      30.08R
ST CHARLES     CLEAR     55  38  52 NE8       30.08R

$$
MOZ072>076-082>087-097>100-106>115-280400-
...SOUTH CENTRAL AND SOUTHEAST MISSOURI...

CITY           SKY/WX    TMP DP  RH WIND       PRES   REMARKS
CAPE GIRARDEAU MOCLDY    54  43  66 E3        30.05R
FARMINGTON     MOCLDY    54  37  54 N5        30.09S
POPLAR BLUFF   MOCLDY    54  42  64 N8        30.03R
WEST PLAINS    MOCLDY    54  33  45 NE7       30.04R

$$


USA.gov is the U.S. government's official web portal to all federal, state and local government web resources and services.